User: anonymous
Location: Blue Moon Astronomical Observatory
(34.7385°N, 94.5476°W)
Time: 06:18:30
(UTC-05:00)
Language:

Iridium 77 - Orbit

View from above orbital plane
View from above orbital plane
View from above satellite
View from above satellite

Ground track
Ground track

The orbit data is extracted from the following two-line orbital elements,

1 25471U 98051E   14205.30496361  .00000238  00000-0  77986-4 0  9978
2 25471 086.3967 104.3245 0002034 101.4189 038.3715 14.34214182836264
Epoch (UTC): 24 July 2014 07:19:08
Eccentricity: 0.0002034
inclination: 86.3967°
perigee height: 776 km
apogee height: 779 km
right ascension of ascending node: 104.3245°
argument of perigee: 101.4189°
revolutions per day: 14.34214182
mean anomaly at epoch: 38.3715°
orbit number at epoch: 83626

The dashed part of the orbit path shows where the satellite is in the earth's shadow,  

DLR